Tiempo cada hora Dachnyy

Hoy, 18 Junio, Viernes

Tiempo Temperatura Precipitaciones Viento Presión Humedad
00:00 +15°C° 0 mm 1 mps 755 mmHg 73%
01:00 +14°C° 0 mm 1 mps 755 mmHg 75%
02:00 +14°C° 0 mm 1 mps 755 mmHg 77%
03:00 +14°C° 0 mm 1 mps 756 mmHg 76%
04:00 +15°C° 0 mm 1 mps 756 mmHg 75%
05:00 +16°C° 0 mm 1 mps 756 mmHg 75%
06:00 +19°C° 0 mm 1 mps 756 mmHg 67%
07:00 +21°C° 0 mm 1 mps 756 mmHg 60%
08:00 +23°C° 0 mm 1 mps 756 mmHg 52%
09:00 +24°C° 0 mm 2 mps 756 mmHg 48%
10:00 +25°C° 0 mm 2 mps 756 mmHg 45%
11:00 +27°C° 0 mm 2 mps 756 mmHg 41%
12:00 +27°C° 0 mm 3 mps 755 mmHg 41%
13:00 +27°C° 0 mm 3 mps 755 mmHg 41%
14:00 +28°C° 0 mm 3 mps 755 mmHg 41%
15:00 +27°C° 0 mm 3 mps 755 mmHg 45%
16:00 +27°C° 0 mm 3 mps 754 mmHg 49%
17:00 +27°C° 0 mm 3 mps 754 mmHg 53%
18:00 +25°C° 0 mm 3 mps 754 mmHg 62%
19:00 +23°C° 0 mm 2 mps 754 mmHg 70%
20:00 +20°C° 0 mm 2 mps 754 mmHg 79%
21:00 +19°C° 0 mm 2 mps 754 mmHg 80%
22:00 +18°C° 0 mm 2 mps 754 mmHg 81%
23:00 +17°C° 0 mm 2 mps 755 mmHg 82%

Mañana, 19 Junio, Sábado

Tiempo Temperatura Precipitaciones Viento Presión Humedad
00:00 +17°C° 0 mm 2 mps 755 mmHg 84%
01:00 +16°C° 0 mm 2 mps 755 mmHg 86%
02:00 +16°C° 0 mm 2 mps 755 mmHg 87%
03:00 +16°C° 0 mm 2 mps 755 mmHg 86%
04:00 +17°C° 0 mm 2 mps 755 mmHg 84%
05:00 +17°C° 0 mm 2 mps 755 mmHg 83%
06:00 +19°C° 0 mm 2 mps 755 mmHg 76%
07:00 +21°C° 0 mm 3 mps 755 mmHg 68%
08:00 +24°C° 0 mm 3 mps 755 mmHg 61%
09:00 +25°C° 0 mm 3 mps 755 mmHg 57%
10:00 +26°C° 0 mm 3 mps 755 mmHg 52%
11:00 +28°C° 0 mm 3 mps 754 mmHg 48%
12:00 +28°C° 0 mm 3 mps 754 mmHg 47%
13:00 +29°C° 0 mm 3 mps 754 mmHg 45%
14:00 +29°C° 0 mm 3 mps 753 mmHg 43%
15:00 +29°C° 0 mm 3 mps 753 mmHg 46%
16:00 +28°C° 0 mm 3 mps 753 mmHg 49%
17:00 +28°C° 0 mm 3 mps 753 mmHg 52%
18:00 +26°C° 0 mm 2 mps 753 mmHg 61%
19:00 +24°C° 0 mm 2 mps 753 mmHg 69%
20:00 +21°C° 0 mm 2 mps 753 mmHg 78%
21:00 +20°C° 0 mm 2 mps 753 mmHg 80%
22:00 +19°C° 0 mm 2 mps 753 mmHg 82%
23:00 +18°C° 0 mm 2 mps 753 mmHg 84%

Pasado mañana, 20 Junio, Domingo

Tiempo Temperatura Precipitaciones Viento Presión Humedad
00:00 +17°C° 0 mm 2 mps 753 mmHg 86%
01:00 +17°C° 0 mm 2 mps 753 mmHg 87%
02:00 +16°C° 0 mm 2 mps 753 mmHg 89%
03:00 +17°C° 0 mm 2 mps 753 mmHg 87%
04:00 +18°C° 0 mm 2 mps 753 mmHg 85%
05:00 +19°C° 0 mm 1 mps 753 mmHg 83%
06:00 +20°C° 0 mm 2 mps 753 mmHg 76%
07:00 +23°C° 0 mm 2 mps 753 mmHg 69%
08:00 +25°C° 0 mm 2 mps 753 mmHg 62%
09:00 +26°C° 0 mm 2 mps 753 mmHg 57%
10:00 +27°C° 0 mm 2 mps 753 mmHg 52%
11:00 +29°C° 0 mm 2 mps 753 mmHg 47%
12:00 +29°C° 0 mm 2 mps 752 mmHg 45%
13:00 +29°C° 0 mm 3 mps 752 mmHg 43%
14:00 +30°C° 0 mm 3 mps 752 mmHg 40%
15:00 +30°C° 0 mm 2 mps 752 mmHg 44%
16:00 +29°C° 0 mm 2 mps 751 mmHg 47%
17:00 +29°C° 0 mm 2 mps 751 mmHg 50%
18:00 +27°C° 0 mm 2 mps 751 mmHg 59%
19:00 +25°C° 0 mm 2 mps 751 mmHg 67%
20:00 +23°C° 0 mm 2 mps 751 mmHg 76%
21:00 +21°C° 0 mm 2 mps 751 mmHg 79%
22:00 +20°C° 0 mm 2 mps 751 mmHg 81%
23:00 +20°C° 0 mm 1 mps 751 mmHg 84%

21 Junio, Lunes

Tiempo Temperatura Precipitaciones Viento Presión Humedad
00:00 +19°C° 0 mm 2 mps 751 mmHg 86%
01:00 +18°C° 0 mm 2 mps 751 mmHg 89%
02:00 +18°C° 0 mm 2 mps 751 mmHg 91%
03:00 +20°C° 0 mm 1 mps 751 mmHg 88%
04:00 +20°C° 0 mm 1 mps 751 mmHg 85%
05:00 +21°C° 0 mm 1 mps 751 mmHg 83%
06:00 +23°C° 0 mm 1 mps 751 mmHg 76%
07:00 +24°C° 0 mm 1 mps 751 mmHg 69%
08:00 +26°C° 0 mm 1 mps 751 mmHg 62%
09:00 +27°C° 0 mm 1 mps 751 mmHg 58%
10:00 +28°C° 0 mm 1 mps 751 mmHg 54%
11:00 +29°C° 0 mm 1 mps 751 mmHg 50%
12:00 +30°C° 0 mm 2 mps 751 mmHg 48%
13:00 +30°C° 0 mm 2 mps 751 mmHg 47%
14:00 +31°C° 0 mm 2 mps 750 mmHg 45%
15:00 +31°C° 0 mm 1 mps 750 mmHg 47%
16:00 +30°C° 0 mm 1 mps 750 mmHg 49%
17:00 +30°C° 0 mm 1 mps 750 mmHg 51%
18:00 +28°C° 0 mm 1 mps 750 mmHg 59%
19:00 +26°C° 0 mm 1 mps 750 mmHg 67%
20:00 +24°C° 0 mm 1 mps 750 mmHg 75%
21:00 +23°C° 0 mm 1 mps 750 mmHg 77%
22:00 +22°C° 0 mm 1 mps 750 mmHg 80%
23:00 +20°C° 0 mm 2 mps 750 mmHg 83%

22 Junio, Martes

Tiempo Temperatura Precipitaciones Viento Presión Humedad
00:00 +20°C° 0 mm 2 mps 750 mmHg 85%
01:00 +20°C° 0 mm 1 mps 750 mmHg 87%
02:00 +20°C° 0 mm 1 mps 750 mmHg 90%
03:00 +20°C° 0 mm 1 mps 750 mmHg 87%
04:00 +21°C° 0 mm 1 mps 751 mmHg 85%
05:00 +21°C° 0 mm 1 mps 751 mmHg 83%
06:00 +23°C° 0 mm 1 mps 751 mmHg 77%
07:00 +25°C° 0 mm 2 mps 751 mmHg 71%
08:00 +26°C° 0 mm 2 mps 751 mmHg 65%
09:00 +28°C° 0 mm 2 mps 751 mmHg 60%
10:00 +29°C° 0 mm 3 mps 751 mmHg 54%
11:00 +31°C° 0 mm 3 mps 751 mmHg 48%
12:00 +31°C° 0 mm 3 mps 750 mmHg 46%
13:00 +33°C° 0 mm 3 mps 750 mmHg 43%
14:00 +34°C° 0 mm 3 mps 750 mmHg 41%
15:00 +33°C° 0 mm 3 mps 750 mmHg 44%
16:00 +32°C° 0 mm 2 mps 750 mmHg 47%
17:00 +32°C° 0 mm 2 mps 750 mmHg 49%
18:00 +30°C° 0 mm 2 mps 750 mmHg 58%
19:00 +28°C° 0 mm 2 mps 750 mmHg 66%
20:00 +25°C° 0 mm 2 mps 750 mmHg 74%
21:00 +24°C° 0 mm 2 mps 750 mmHg 77%
22:00 +23°C° 0 mm 2 mps 750 mmHg 81%
23:00 +21°C° 0 mm 2 mps 750 mmHg 84%

23 Junio, Miércoles

Tiempo Temperatura Precipitaciones Viento Presión Humedad
00:00 +21°C° 0 mm 2 mps 751 mmHg 86%
01:00 +20°C° 0 mm 2 mps 751 mmHg 88%
02:00 +20°C° 0 mm 2 mps 751 mmHg 90%
03:00 +20°C° 0 mm 2 mps 751 mmHg 88%
04:00 +22°C° 0 mm 1 mps 751 mmHg 87%
05:00 +23°C° 0 mm 1 mps 751 mmHg 85%
06:00 +24°C° 0 mm 1 mps 751 mmHg 78%
07:00 +26°C° 0 mm 2 mps 751 mmHg 70%
08:00 +28°C° 0 mm 2 mps 751 mmHg 63%
09:00 +29°C° 0 mm 2 mps 751 mmHg 57%
10:00 +31°C° 0 mm 3 mps 751 mmHg 51%
11:00 +33°C° 0 mm 3 mps 751 mmHg 45%
12:00 +33°C° 0 mm 3 mps 751 mmHg 44%
13:00 +34°C° 0 mm 3 mps 751 mmHg 42%
14:00 +34°C° 0 mm 3 mps 751 mmHg 40%
15:00 +34°C° 0 mm 3 mps 751 mmHg 43%
16:00 +32°C° 0 mm 2 mps 750 mmHg 46%
17:00 +32°C° 0 mm 2 mps 750 mmHg 48%
18:00 +30°C° 0 mm 2 mps 750 mmHg 57%
19:00 +28°C° 0 mm 2 mps 750 mmHg 65%
20:00 +26°C° 0 mm 1 mps 750 mmHg 73%
21:00 +25°C° 0 mm 2 mps 750 mmHg 76%
22:00 +24°C° 0 mm 2 mps 750 mmHg 79%
23:00 +23°C° 0 mm 2 mps 750 mmHg 81%
Mostrar más

Necesitamos Su Consentimiento

Meteoprog y nuestros Proveedores de Servicios pueden almacenar y acceder a sus datos personales como cookies, identificadores de dispositivo u otras tecnologías similares de su dispositivo y procesar dichos datos para personalizar contenido y anuncios, además de ofrecer funciones de redes sociales y analizar el tráfico.

  • Almacenar y/o acceder a información en su dispositivo

    Se puede almacenar o acceder a cookies, identificadores de dispositivo u otra información de su dispositivo para los fines anteriormente indicados.

  • Anuncios y contenido personalizados, medición de anuncios y contenido, percepciones del público, y desarrollo de productos

    Los anuncios y el contenido pueden personalizarse en base a su perfil. Se pueden añadir más datos para personalizar mejor los anuncios y contenidos. Se puede medir el rendimiento de los anuncios y contenidos. Se puede obtener la percepción sobre el público que ha visto los anuncios y contenidos. Dichos datos pueden usarse para desarrollar o mejorar la experiencia del usuario, sistemas y software.

Al hacer clic en ‘Estoy De Acuerdo’ usted permitirá el uso de las cookies, identificadores de dispositivo, balizas web u otras tecnologías similares indicadas. Su configuración puede cambiarse desde el navegador de su dispositivo.

Para ciertos fines, los intereses legítimos pueden ser considerados por encima del consentimiento. Puede leer más sobre ello en nuestra Política de Privacidad y Cookies.